FW0479 Weather Reports


time (UTC)temp
C
wind
direction
speed
KPH
gust
KPH
rain 1hr
cm
rain 24hr
cm
rain mn
cm
humidity
%
barometer
mb
20211208125122 3 41 0.0 3.2 0.00 1.30 1.30 91 1016.3
20211208124121 3 68 0.0 0.0 0.00 1.30 1.30 91 1016.3
20211208123121 3 45 0.0 0.0 0.00 1.30 1.30 91 1016.1
20211208122122 3 52 0.0 3.2 0.00 1.30 1.30 91 1015.9
20211208121124 3 68 0.0 0.0 0.00 1.30 1.30 91 1016.1
20211208120123 3 127 0.0 3.2 0.03 1.30 1.30 91 1015.9
20211208115124 3 13 0.0 3.2 0.05 1.30 1.30 91 1015.6
20211208114122 3 44 1.6 3.2 0.05 1.30 1.30 91 1015.6
20211208113121 3 40 3.2 4.8 0.10 1.30 1.30 91 1016.0
20211208112121 3 10 3.2 8.0 0.23 1.30 1.30 91 1016.4
20211208111122 3 342 6.4 12.9 0.48 1.30 1.30 91 1014.7
20211208110122 3 57 4.8 6.4 0.58 1.27 1.27 90 1016.6
20211208105121 3 89 4.8 6.4 0.66 1.24 1.24 90 1015.9
20211208104121 3 119 4.8 6.4 0.66 1.24 1.24 89 1015.9
20211208103122 3 95 3.2 6.4 0.64 1.19 1.19 89 1016.7
20211208102122 3 195 4.8 11.3 0.56 1.07 1.07 89 1016.6
20211208101121 3 273 4.8 9.7 0.38 0.81 0.81 88 1017.7
20211208100121 3 99 1.6 6.4 0.33 0.69 0.69 88 1016.8
20211208095121 3 152 3.2 4.8 0.28 0.58 0.58 87 1016.7
20211208094122 3 341 3.2 4.8 0.41 0.58 0.58 87 1016.7
20211208093121 3 137 4.8 6.4 0.48 0.56 0.56 87 1016.5
20211208092122 4 287 1.6 4.8 0.51 0.51 0.51 87 1017.2
20211208091122 4 73 3.2 4.8 0.43 0.43 0.43 86 1016.8
20211208090122 5 132 1.6 3.2 0.36 0.36 0.36 85 1017.4
20211208085124 5 320 3.2 4.8 0.30 0.30 0.30 84 1017.4
20211208084123 5 189 3.2 6.4 0.20 0.20 0.20 81 1017.4
20211208083122 6 34 3.2 6.4 0.08 0.08 0.08 78 1017.3
20211208082122 7 210 3.2 4.8 0.00 0.00 0.00 62 1017.3
20211208081122 7 133 1.6 3.2 0.00 0.00 0.00 55 1016.8
20211208080121 7 87 3.2 4.8 0.00 0.00 0.00 55 1016.7
20211208075123 7 99 3.2 4.8 0.00 0.00 0.00 56 1017.4
20211208074122 7 68 0.0 0.0 0.00 0.00 0.00 55 1017.4
20211208073122 7 95 1.6 3.2 0.00 0.00 0.00 55 1017.4
20211208072122 7 268 0.0 3.2 0.00 0.00 0.00 54 1017.5
20211208071122 7 109 4.8 6.4 0.00 0.00 0.00 54 1016.8
20211208070122 7 115 3.2 4.8 0.00 0.00 0.00 54 1017.4
20211208065122 7 110 3.2 4.8 0.00 0.00 0.00 54 1017.8
20211208064123 7 105 3.2 4.8 0.00 0.00 0.00 54 1017.8
20211208063122 6 109 3.2 4.8 0.00 0.00 0.00 55 1018.0
20211208062122 6 122 1.6 3.2 0.00 0.00 0.00 56 1018.0
20211208061122 7 113 0.0 3.2 0.00 0.00 0.00 55 1018.5
20211208060122 7 198 0.0 3.2 0.00 0.00 0.00 54 1019.0
20211208055122 7 120 3.2 4.8 0.00 0.00 0.00 54 1019.1
20211208054122 7 109 1.6 3.2 0.00 0.00 0.00 54 1019.1
20211208053122 7 90 0.0 1.6 0.00 0.00 0.00 55 1019.3
20211208052122 7 137 1.6 3.2 0.00 0.00 0.00 55 1019.2
20211208051123 7 112 1.6 3.2 0.00 0.00 0.00 54 1018.8
20211208050122 7 114 1.6 3.2 0.00 0.00 0.00 53 1019.1
20211208045122 7 115 3.2 4.8 0.00 0.00 0.00 53 1019.3
20211208044121 7 117 3.2 4.8 0.00 0.00 0.00 52 1019.3
20211208043121 7 116 3.2 4.8 0.00 0.00 0.00 52 1019.6
20211208042122 7 113 3.2 4.8 0.00 0.00 0.00 52 1019.9
20211208041122 7 103 1.6 3.2 0.00 0.00 0.00 53 1020.0
20211208040122 7 86 3.2 4.8 0.00 0.00 0.00 52 1020.3
20211208035122 7 90 1.6 3.2 0.00 0.00 0.00 52 1020.3
20211208034121 7 113 1.6 3.2 0.00 0.00 0.00 53 1020.3
20211208033122 7 89 1.6 3.2 0.00 0.00 0.00 55 1020.4
20211208032122 7 342 3.2 4.8 0.00 0.00 0.00 54 1020.8
20211208031121 7 111 1.6 3.2 0.00 0.00 0.00 51 1020.7
20211208030122 7 75 1.6 4.8 0.00 0.00 0.00 52 1020.7
20211208025121 7 63 1.6 3.2 0.00 0.00 0.00 52 1020.7
20211208024122 7 101 1.6 3.2 0.00 0.00 0.00 51 1020.7
20211208023122 7 124 0.0 3.2 0.00 0.00 0.00 50 1021.1
20211208022121 7 105 0.0 3.2 0.00 0.00 0.00 49 1021.2
20211208021121 7 45 0.0 0.0 0.00 0.00 0.00 49 1020.9
20211208020122 7 113 1.6 3.2 0.00 0.00 0.00 48 1020.6
20211208015122 7 113 1.6 4.8 0.00 0.00 0.00 47 1020.9
20211208014121 7 96 3.2 4.8 0.00 0.00 0.00 49 1020.9
20211208013121 7 89 3.2 4.8 0.00 0.00 0.00 47 1020.5
20211208012122 7 91 3.2 4.8 0.00 0.00 0.00 46 1020.8
20211208011123 7 95 1.6 4.8 0.00 0.00 0.00 47 1021.2
20211208010121 7 23 0.0 0.0 0.00 0.00 0.00 46 1021.1
20211208005121 7 45 0.0 0.0 0.00 0.00 0.00 46 1021.0
20211208004121 8 113 0.0 0.0 0.00 0.00 0.00 44 1021.0
20211208003122 8 122 1.6 3.2 0.00 0.00 0.00 44 1021.2
20211208002122 8 177 1.6 3.2 0.00 0.00 0.00 43 1021.1
20211208001122 8 37 1.6 3.2 0.00 0.00 0.00 43 1021.1
20211208000121 8 23 1.6 3.2 0.00 0.00 0.00 42 1020.7
20211207235122 8 101 3.2 4.8 0.00 0.00 0.00 42 1020.7
20211207234122 8 86 1.6 4.8 0.00 0.00 0.00 42 1020.7
20211207233122 8 58 1.6 4.8 0.00 0.00 0.00 41 1020.7
20211207232122 8 84 3.2 4.8 0.00 0.00 0.00 43 1020.2
20211207231122 8 105 3.2 4.8 0.00 0.00 0.00 41 1020.6
20211207230122 9 90 3.2 4.8 0.00 0.00 0.00 41 1020.9
20211207225122 9 68 0.0 0.0 0.00 0.00 0.00 40 1021.1
20211207210122 10 45 0.0 0.0 0.00 0.00 0.00 32 1020.4
20211207205122 10 45 0.0 0.0 0.00 0.00 0.00 32 1020.3
20211207204122 10 45 0.0 4.8 0.00 0.00 0.00 32 1020.4
20211207203122 10 45 1.6 4.8 0.00 0.00 0.00 32 1020.4
20211207202122 10 69 1.6 4.8 0.00 0.00 0.00 32 1020.5
20211207201122 10 23 1.6 3.2 0.00 0.00 0.00 31 1020.5
20211207200122 10 113 3.2 6.4 0.00 0.00 0.00 31 1020.6
20211207184122 10 45 0.0 0.0 0.00 0.00 0.00 30 1021.9
20211207183122 10 45 0.0 0.0 0.00 0.00 0.00 30 1022.0
20211207182121 10 45 0.0 0.0 0.00 0.00 0.00 30 1022.3
20211207181122 10 21 3.2 6.4 0.00 0.00 0.00 30 1022.3
20211207180121 10 108 3.2 9.7 0.00 0.00 0.00 30 1022.5
20211207175121 10 32 3.2 8.0 0.00 0.00 0.00 31 1022.8
20211207174122 9 113 0.0 0.0 0.00 0.00 0.00 32 1022.8
20211207173122 9 91 4.8 9.7 0.00 0.00 0.00 32 1022.7
20211207172121 9 68 1.6 8.0 0.00 0.00 0.00 32 1022.8
20211207171121 8 77 4.8 11.3 0.00 0.00 0.00 32 1023.2
20211207170122 9 113 1.6 8.0 0.00 0.00 0.00 32 1023.6
20211207165122 8 68 4.8 9.7 0.00 0.00 0.00 32 1024.0
20211207164121 8 106 8.0 11.3 0.00 0.00 0.00 33 1024.0
20211207163122 7 48 4.8 8.0 0.00 0.00 0.00 34 1024.4
20211207162121 7 52 4.8 6.4 0.00 0.00 0.00 35 1024.6
20211207161125 8 81 6.4 11.3 0.00 0.00 0.00 36 1024.9
20211207160122 7 18 4.8 8.0 0.00 0.00 0.00 39 1025.1
20211207155122 7 63 4.8 9.7 0.00 0.00 0.00 40 1025.1
20211207154122 6 7 6.4 9.7 0.00 0.00 0.00 40 1025.1
20211207153121 6 20 4.8 8.0 0.00 0.00 0.00 41 1025.0
20211207152122 6 80 6.4 8.0 0.00 0.00 0.00 41 1025.0
20211207151122 5 49 6.4 9.7 0.00 0.00 0.00 41 1025.1
20211207150122 5 64 4.8 8.0 0.00 0.00 0.00 43 1025.0
20211207145126 5 76 6.4 9.7 0.00 0.00 0.00 43 1024.9
20211207144122 5 69 6.4 9.7 0.00 0.00 0.00 43 1024.9
20211207143122 5 80 6.4 11.3 0.00 0.00 0.00 45 1024.7
20211207142122 5 81 8.0 12.9 0.00 0.00 0.00 45 1024.7
20211207141121 5 70 8.0 11.3 0.00 0.00 0.00 46 1024.4
20211207140122 5 75 8.0 11.3 0.00 0.00 0.00 47 1024.4
20211207135126 4 77 4.8 8.0 0.00 0.00 0.00 48 1024.0
20211207134122 4 77 6.4 9.7 0.00 0.00 0.00 49 1024.0
20211207133122 4 69 6.4 8.0 0.00 0.00 0.00 49 1024.1
20211207132122 4 73 6.4 8.0 0.00 0.00 0.00 50 1024.0
20211207131122 4 70 6.4 9.7 0.00 0.00 0.00 50 1023.7
20211207130122 3 57 6.4 8.0 0.00 0.00 0.00 51 1023.4